CAPE
0 0 0 0 0 0 0 0 0 0 0 0 19 85 385 751 1068 1102 918 895 767 985 1584 1675 1913 2007 1965 1988 2018 2201 2043 1686 1686 1645 1353 1116 1285 1512 2471 1895 1897 2111 2219 2081
0 0 0 0 0 0 0 0 0 0 0 0 12 157 431 451 705 602 618 794 780 558 526 740 1357 1726 1857 2089 2213 2355 2454 2258 2102 1750 1571 1108 1363 1550 2377 1817 1836 2159 1886 1578
0 0 0 0 0 0 0 0 0 0 0 115 109 189 446 469 597 826 982 898 904 914 1076 1211 1321 1426 1636 1775 2111 2348 2617 2710 2698 2267 1880 1684 1830 2285 2761 1850 2072 2136 1832 1791
0 0 0 0 0 0 0 0 0 0 0 64 28 325 497 500 494 852 934 669 497 898 1061 1108 1465 1549 1509 1653 1879 2070 2379 2659 2543 2887 2439 2708 2161 2856 2536 2859 1522 1776 1700 1406
0 0 0 0 0 0 0 0 0 0 2 33 260 362 563 582 510 637 537 375 673 739 1235 1342 1203 1363 1440 1319 1393 1799 2230 2488 2391 2377 2482 2472 2900 2919 1423 1019 1668 1876 1317 1691
0 0 0 0 0 0 0 0 0 0 13 120 262 274 441 391 493 608 469 444 552 807 983 1418 1384 1344 1502 1326 1386 1775 2161 2576 2269 2148 1925 1544 1397 2219 1605 1336 1512 1998 1430 1240
0 0 0 0 0 0 0 0 34 51 81 84 137 293 428 350 506 631 501 549 489 1025 1023 1295 1651 1693 1817 1775 1459 1688 2089 2296 2067 1126 983 724 575 1446 1875 1686 1376 2134 2000 1102
0 0 0 0 0 12 0 2 53 81 98 84 106 231 579 426 491 461 419 320 697 937 1050 1269 1595 1884 1857 1796 1979 2077 2223 1888 1660 1624 1378 1156 832 1632 1721 1125 2388 1173 1344 1552
0 15 0 0 0 0 1 0 0 30 36 29 126 154 497 607 549 439 479 801 896 1004 1326 1323 1613 1727 1735 1835 2063 2245 2274 1974 1706 1387 30 278 68 106 363 978 2038 1220 1505 1379
0 41 0 0 0 0 0 0 27 34 83 136 215 176 262 750 694 498 516 735 1259 1530 1688 1830 1834 1819 1778 1726 1948 1994 1713 1137 1257 798 23 90 162 254 355 1826 1919 1691 1604 1755
0 4 12 8 54 47 0 17 18 23 55 159 196 240 386 718 756 589 588 1206 1756 1649 1941 1965 1945 1935 1917 1726 1476 1073 1093 1417 1303 684 471 388 276 91 327 1026 1425 1466 1563 1986
0 12 182 103 0 0 30 69 52 175 295 116 27 56 518 757 682 511 733 1753 2296 2153 2117 2125 2095 1977 1870 1851 1719 1536 1439 1314 1342 1177 772 634 241 343 480 947 1277 1102 1266 1838
0 7 179 68 23 12 49 9 7 9 3 6 41 90 469 665 617 458 1177 2150 2593 2470 2509 2644 2937 2781 2363 2112 1913 1666 1516 1269 1078 1059 941 768 774 869 1008 1165 1533 1399 2023 2511
2 97 145 69 54 30 14 0 0 0 12 18 13 0 0 357 620 501 1865 2374 2390 2365 2275 2394 2748 3269 3152 2910 2712 2384 2204 1976 1961 1637 1314 1200 1157 1118 936 1058 1098 1312 2229 3115
28 172 107 26 0 0 0 0 0 0 0 0 0 0 154 683 610 633 2167 2316 2057 2053 1875 1823 2059 2282 2302 2299 2214 2299 2902 3185 2658 2543 2521 2582 2513 2543 2630 3030 2903 2034 2694 2826
83 174 108 34 0 0 0 0 0 0 0 0 0 12 758 675 662 1143 2046 2027 2046 1872 1659 1616 1664 1566 1381 1230 1166 1342 1542 1867 2130 1770 1944 2516 2755 2505 2616 3044 3186 2915 2722 2552
168 184 203 194 22 12 35 9 0 0 0 48 31 959 1070 906 736 1749 2030 1920 1912 1714 1418 1183 1121 1160 1023 965 962 885 780 694 816 791 866 1022 1025 903 1407 1888 2393 2863 2887 2478
58 178 182 202 84 45 56 82 0 0 51 251 506 980 1078 1223 1383 1808 1833 1864 1493 1215 1004 952 929 712 672 561 630 750 575 571 498 476 360 410 455 647 969 1039 1432 1621 1735 2326
9 194 173 113 97 3 0 7 14 0 15 359 705 1057 1336 1511 1629 1733 1384 1259 1161 999 866 605 449 416 622 687 705 519 427 412 370 175 148 141 154 200 315 492 896 1074 1301 1416
0 0 69 62 11 0 0 0 123 191 40 517 785 1211 1401 1493 1153 1397 1200 991 871 708 651 597 416 368 298 358 302 377 384 382 331 235 289 424 405 283 183 200 378 707 904 798
108 114 5 10 0 0 26 251 366 89 441 692 906 1255 1356 1371 1311 1532 1249 1013 1002 963 667 628 612 370 320 277 248 246 118 90 214 172 434 644 558 586 594 642 696 693 624 757
78 62 26 11 9 7 52 358 282 550 777 1145 1361 1403 1264 1287 1163 1209 1190 1050 779 40 16 16 24 22 14 5 33 89 134 351 384 475 476 604 827 595 51 838 926 886 821 729
4 20 336 74 366 306 156 534 534 466 889 1277 1456 1480 1440 1351 859 644 387 98 0 0 0 0 0 4 41 160 169 151 218 222 228 258 393 583 814 834 788 970 1131 630 1159 582
11 7 46 197 170 190 172 240 260 571 562 655 582 385 243 114 13 1 0 0 0 0 0 0 10 27 60 75 80 96 71 73 68 66 82 78 122 452 495 382 135 22 4 0
0 13 3 52 107 125 92 120 307 252 128 32 5 0 0 0 0 0 0 0 0 0 5 40 69 90 78 46 42 24 13 7 0 0 0 0 0 4 282 367 10 2 61 0
0 0 0 0 0 57 0 113 68 61 11 0 0 0 0 0 0 0 0 0 1 30 76 62 52 27 15 1 0 0 1 4 6 1 0 0 0 5 12 14 10 0 0 0
CIN
-0 -0 -0 -0 -0 -0 -0 -0 -0 -0 -0 -0 -32 -20 -27 -82 -79 -61 -37 -43 -32 -41 -22 -23 -9 -0 -14 -5 -14 -17 -34 -59 -32 -29 -24 -15 -4 -0 -0 -0 -0 -0 -0 -0
-0 -0 -0 -0 -0 -0 -0 -0 -0 -0 -0 -0 -10 -29 -55 -91 -81 -86 -68 -57 -52 -75 -95 -92 -52 -23 -8 -3 -10 -13 -17 -14 -18 -18 -26 -14 -0 -0 -0 -0 -0 -1 -0 -0
-0 -0 -0 -0 -0 -0 -0 -0 -0 -0 -0 -26 -34 -13 -49 -95 -117 -88 -71 -70 -58 -72 -105 -91 -77 -63 -41 -23 -27 -17 -12 -8 -9 -11 -3 -5 -0 -0 -0 -0 -0 -0 -0 -2
-0 -0 -0 -0 -0 -0 -0 -0 -0 -0 -0 -0 -74 -0 -14 -40 -76 -72 -52 -56 -67 -50 -69 -110 -70 -65 -57 -37 -24 -29 -26 -18 -22 -1 -0 -0 -0 -1 -0 -0 -0 -1 -0 -0
-0 -0 -0 -0 -0 -0 -0 -0 -0 -0 -13 -7 -7 -1 -15 -64 -29 -36 -67 -95 -55 -69 -73 -147 -102 -95 -75 -72 -57 -55 -36 -17 -13 -6 -3 -1 -0 -3 -7 -7 -0 -1 -7 -0
-0 -0 -0 -0 -0 -0 -0 -0 -0 -0 -4 -0 -6 -5 -0 -6 -26 -32 -69 -108 -62 -60 -57 -128 -157 -142 -113 -110 -80 -42 -31 -11 -27 -27 -12 -21 -8 -0 -0 -21 -6 -0 -3 -9
-0 -0 -0 -0 -0 -0 -0 -0 -0 -0 -0 -10 -7 -1 -0 -25 -45 -71 -74 -68 -65 -58 -73 -67 -124 -140 -137 -118 -95 -68 -45 -19 -9 -19 -6 -23 -35 -0 -5 -9 -0 -0 -0 -1
-0 -0 -0 -0 -0 -0 -0 -0 -0 -0 -0 -4 -8 -0 -1 -65 -63 -113 -138 -100 -76 -55 -75 -72 -87 -112 -121 -102 -68 -50 -27 -17 -8 -2 -0 -1 -7 -0 -0 -19 -0 -0 -0 -0
-0 -0 -0 -0 -0 -0 -2 -0 -0 -0 -5 -0 -0 -0 -26 -55 -61 -88 -87 -70 -65 -55 -49 -55 -61 -82 -95 -94 -62 -26 -12 -16 -9 -0 -35 -2 -35 -27 -19 -29 -0 -0 -0 -7
-0 -3 -0 -0 -0 -0 -0 -0 -0 -2 -0 -0 -0 -2 -0 -14 -30 -56 -66 -67 -48 -42 -35 -36 -50 -65 -81 -68 -55 -37 -42 -68 -34 -20 -46 -18 -3 -15 -60 -0 -1 -2 -1 -6
-0 -0 -1 -5 -3 -0 -0 -0 -2 -2 -0 -0 -0 -0 -8 -11 -30 -42 -85 -56 -27 -24 -25 -34 -51 -69 -66 -84 -92 -103 -83 -28 -23 -44 -30 -50 -117 -147 -86 -28 -0 -0 -0 -0
-0 -1 -0 -0 -0 -0 -5 -1 -0 -0 -0 -0 -5 -0 -52 -41 -63 -70 -64 -35 -14 -22 -23 -31 -41 -61 -72 -71 -81 -85 -68 -47 -19 -27 -60 -62 -160 -138 -89 -12 -0 -4 -5 -0
-0 -0 -0 -0 -4 -26 -1 -19 -19 -13 -0 -0 -0 -1 -52 -72 -89 -106 -52 -20 -10 -15 -14 -10 -6 -17 -40 -50 -59 -66 -63 -61 -56 -52 -46 -58 -55 -26 -4 -1 -9 -27 -1 -0
-81 -0 -0 -11 -20 -5 -3 -0 -0 -0 -0 -0 -0 -0 -0 -78 -94 -122 -34 -10 -2 -6 -14 -12 -2 -0 -0 -4 -12 -20 -19 -24 -20 -28 -36 -33 -38 -40 -52 -41 -68 -44 -4 -6
-9 -0 -4 -18 -0 -0 -0 -0 -0 -0 -0 -0 -0 -0 -13 -46 -82 -98 -11 -14 -13 -4 -12 -18 -13 -3 -0 -3 -8 -7 -0 -1 -11 -5 -1 -0 -0 -0 -0 -0 -0 -21 -0 -8
-16 -6 -3 -10 -0 -1 -1 -0 -0 -0 -0 -0 -0 -28 -39 -126 -129 -108 -11 -11 -7 -15 -24 -22 -19 -25 -27 -38 -41 -37 -37 -21 -11 -26 -14 -1 -0 -0 -1 -0 -0 -3 -7 -12
-9 -2 -3 -0 -19 -36 -23 -10 -0 -0 -0 -38 -21 -7 -38 -66 -94 -40 -13 -6 -7 -21 -32 -36 -33 -37 -42 -40 -43 -53 -55 -62 -48 -39 -41 -39 -46 -54 -40 -25 -10 -1 -0 -4
-15 -0 -4 -0 -8 -2 -5 -46 -0 -0 -27 -23 -17 -16 -24 -36 -47 -42 -25 -7 -17 -24 -34 -35 -26 -39 -40 -42 -40 -35 -35 -30 -38 -42 -55 -43 -37 -32 -34 -34 -15 -12 -11 -0
-43 -10 -0 -0 -0 -5 -0 -18 -21 -0 -5 -9 -5 -14 -30 -43 -42 -35 -41 -27 -27 -31 -34 -41 -54 -54 -32 -17 -14 -15 -21 -14 -12 -26 -40 -35 -28 -24 -19 -19 -11 -6 -1 -2
-0 -38 -6 -0 -33 -0 -0 -0 -23 -10 -12 -2 -11 -9 -17 -29 -0 -1 -32 -38 -40 -46 -42 -36 -39 -23 -19 -21 -28 -17 -9 -11 -13 -28 -26 -11 -12 -11 -12 -10 -8 -0 -0 -3
-17 -27 -26 -5 -0 -0 -61 -24 -17 -4 -4 -11 -11 -8 -15 -7 -5 -38 -41 -42 -35 -28 -26 -19 -16 -22 -53 -74 -79 -62 -133 -164 -114 -125 -38 -9 -8 -7 -5 -4 -4 -3 -0 -0
-23 -9 -12 -33 -16 -7 -100 -43 -4 -36 -51 -20 -21 -17 -15 -16 -40 -42 -29 -27 -25 -106 -129 -167 -166 -173 -233 -108 -205 -131 -111 -42 -51 -37 -33 -12 -7 -7 -125 -0 -4 -0 -0 -0
-6 -58 -8 -32 -5 -96 -99 -54 -59 -62 -30 -21 -15 -24 -14 -9 -13 -17 -13 -49 -4 -0 -0 -0 -0 -49 -144 -87 -94 -86 -80 -87 -87 -71 -34 -3 -0 -0 -2 -0 -0 -1 -0 -0
-112 -146 -54 -54 -33 -51 -68 -60 -89 -45 -26 -25 -25 -29 -29 -27 -31 -5 -0 -0 -0 -0 -0 -0 -38 -132 -119 -126 -132 -134 -166 -173 -175 -153 -138 -116 -124 -6 -15 -33 -107 -124 -0 -0
-0 -74 -32 -61 -55 -66 -65 -42 -28 -43 -48 -52 -40 -0 -0 -0 -0 -0 -0 -0 -0 -0 -51 -102 -108 -108 -121 -145 -165 -26 -30 -20 -0 -0 -0 -0 -0 -14 -27 -70 -0 -0 -62 -0
-0 -0 -0 -0 -0 -84 -0 -52 -57 -43 -75 -0 -0 -0 -0 -0 -0 -0 -0 -0 -93 -69 -75 -81 -93 -6 -3 -2 -0 -0 -0 -0 -0 -0 -0 -0 -0 -0 -0 -0 -0 -0 -0 -0
Wind_Speed
9 11 14 1 4 5 8 9 8 3 5 7 6 11 5 2 2 3 3 3 4 5 8 11 13 14 16 14 15 14 14 14 12 10 10 10 10 9 8 9 10 10 10 9
9 13 4 1 3 7 10 10 8 1 1 6 8 11 2 1 1 3 5 5 4 4 6 9 13 15 16 15 15 15 15 14 13 10 9 9 9 9 8 9 10 10 12 10
14 4 6 4 8 10 12 9 7 6 3 5 8 11 3 4 3 2 0 2 4 4 3 6 9 12 14 16 16 15 15 15 14 14 9 8 8 7 7 8 8 10 12 10
12 7 8 8 8 6 15 3 5 5 7 7 3 3 5 2 2 4 1 6 6 7 5 4 6 10 12 13 13 13 14 15 14 15 12 14 11 9 7 5 8 4 7 11
10 11 13 10 9 3 4 2 5 5 11 7 7 8 9 0 2 4 5 4 6 6 7 6 5 5 8 9 8 10 12 11 13 12 12 10 11 8 8 7 10 7 8 9
5 2 5 11 2 6 3 9 9 8 11 12 8 6 12 5 7 4 4 3 5 7 7 7 5 4 6 6 6 7 8 10 12 14 15 12 8 10 9 7 6 8 6 7
15 13 10 9 13 9 11 13 10 9 9 1 6 7 11 6 6 4 2 3 3 7 7 6 5 6 6 7 7 6 7 8 9 9 8 9 10 13 9 7 8 7 5 8
12 16 15 12 14 11 16 15 8 5 5 3 7 4 8 6 6 4 2 2 2 6 6 6 5 6 6 6 5 5 5 4 7 12 14 12 9 6 6 6 7 8 7 7
9 3 5 3 6 11 8 10 6 7 4 9 4 3 10 7 6 6 7 4 4 6 7 6 6 6 7 6 6 5 6 5 6 7 1 8 6 3 4 9 9 7 7 6
2 5 3 8 8 4 9 6 10 7 3 6 6 3 4 6 7 8 6 4 5 5 6 8 8 7 6 6 7 5 5 3 1 5 4 4 4 0 6 9 9 8 8 9
9 7 9 7 6 8 7 11 5 8 6 8 6 7 10 5 6 8 5 3 7 7 8 8 8 6 7 6 6 4 5 5 5 6 6 7 6 0 8 9 10 7 8 9
13 6 6 7 4 1 6 5 9 6 6 3 8 4 8 7 7 7 5 6 8 8 9 8 8 7 6 5 5 4 3 5 7 8 7 7 6 7 11 15 12 8 9 10
11 8 8 10 11 7 5 0 5 8 8 10 8 4 7 8 9 5 5 8 8 9 10 11 10 8 6 5 2 2 3 3 5 8 10 11 11 14 15 14 11 11 10 10
11 7 10 2 5 3 4 6 4 11 10 11 9 10 6 5 7 7 7 7 8 9 9 11 11 11 11 8 6 4 2 2 4 6 7 7 10 11 10 12 11 11 12 9
12 6 5 2 6 1 2 5 5 9 10 10 11 7 7 4 7 7 9 9 8 9 11 11 12 12 11 10 9 9 8 6 4 4 4 5 7 8 10 10 10 11 8 6
7 5 6 8 6 6 8 10 10 10 8 8 11 10 5 5 7 9 9 9 9 9 10 11 11 11 10 9 9 9 9 8 7 7 6 4 2 1 3 4 7 7 8 9
4 7 7 9 6 6 12 9 6 7 6 7 9 9 5 7 9 10 9 8 9 9 8 8 8 9 8 8 7 8 7 7 6 6 5 5 4 4 4 4 3 7 9 10
4 6 3 5 4 13 6 2 3 7 3 6 6 1 5 6 7 6 7 8 8 8 7 6 6 7 6 6 6 5 5 5 4 4 3 2 2 3 4 5 5 6 7 8
6 7 5 7 12 14 9 6 9 9 5 6 5 7 8 9 8 7 7 6 5 5 5 4 5 5 3 2 3 2 3 2 2 2 2 1 3 4 5 6 6 7 8 9
4 7 9 9 11 16 4 4 3 1 11 12 8 10 11 10 8 11 10 8 7 4 1 3 4 5 5 4 4 5 5 4 5 4 4 4 4 5 6 6 7 6 8 9
7 6 11 9 9 8 5 4 6 11 4 6 8 8 9 7 6 7 8 6 3 2 2 2 4 5 2 2 3 5 4 5 5 6 6 7 8 8 8 8 7 8 8 9
7 7 7 7 7 12 3 5 10 6 3 5 5 6 6 3 3 2 4 3 2 1 3 2 3 2 1 1 3 5 5 5 6 7 9 10 10 10 10 9 9 10 9 11
6 4 7 5 6 2 2 4 6 6 4 3 5 5 4 4 2 1 1 1 3 4 5 4 4 5 3 1 3 5 5 6 7 9 10 10 11 11 12 12 12 11 11 12
4 3 6 4 6 2 2 3 2 1 3 4 5 5 3 2 1 1 3 5 6 6 6 5 6 6 4 4 5 6 7 8 10 12 13 13 13 12 12 11 12 12 13 13
5 6 7 7 4 3 6 5 3 4 4 4 4 3 3 4 5 6 7 7 7 6 5 5 5 6 8 8 9 9 9 10 12 13 14 14 13 15 12 12 12 13 13 13
7 9 8 7 6 5 7 7 6 7 6 4 2 1 2 4 6 6 7 6 6 6 5 7 9 10 11 12 12 11 11 12 13 14 13 12 12 12 12 12 13 14 18 18
Wind_Direction
199 227 221 265 351 318 304 288 290 338 21 301 311 306 34 38 214 244 271 259 275 248 210 224 209 211 212 210 205 209 202 193 207 205 204 207 217 220 213 234 241 241 234 235
198 227 167 53 251 254 258 279 268 301 318 287 307 298 329 262 116 325 335 315 317 293 249 233 226 211 215 210 216 211 217 208 207 210 215 219 217 224 208 225 247 242 251 235
227 116 108 227 215 240 241 269 310 316 333 235 300 252 229 170 213 182 210 14 19 7 319 257 221 223 215 212 210 217 216 216 212 223 212 209 227 231 220 239 232 234 233 241
237 141 217 223 240 261 265 143 293 287 278 336 338 348 93 107 232 210 208 28 354 18 19 302 222 207 213 212 213 213 217 214 212 208 216 212 224 215 229 211 241 260 250 243
198 212 213 233 240 238 330 334 289 287 266 271 169 264 96 150 131 178 69 50 39 28 52 4 287 206 202 195 206 206 217 216 225 208 229 224 224 247 228 221 245 228 259 257
233 127 242 246 256 230 325 247 234 242 263 245 91 297 104 64 44 140 98 56 54 36 11 60 36 147 194 196 204 201 205 211 211 209 207 205 207 251 243 216 245 235 240 255
210 216 219 235 243 198 234 244 237 215 208 62 96 254 56 72 86 75 7 48 23 14 26 34 66 123 153 179 177 184 193 211 205 213 209 215 198 229 250 231 246 275 237 245
203 198 207 197 239 263 208 254 269 224 228 129 138 261 80 62 94 94 39 39 33 18 21 33 70 132 147 154 157 163 161 175 223 221 224 205 194 213 236 256 259 254 241 259
189 173 121 237 225 242 147 221 321 289 203 255 72 142 130 107 142 131 93 93 48 13 31 59 95 123 131 150 145 153 156 189 232 256 22 218 163 224 321 307 282 249 253 252
98 174 154 139 177 179 284 104 203 212 260 273 107 264 28 127 143 139 129 107 85 80 62 70 82 108 120 130 126 131 147 177 268 123 153 91 159 81 330 300 260 251 250 242
229 273 138 186 225 158 175 213 234 306 317 316 276 76 78 106 144 151 117 108 95 92 81 77 82 92 112 120 124 151 179 175 175 164 164 180 146 15 265 266 264 251 252 247
215 261 195 94 86 298 291 357 267 269 169 226 303 307 70 112 129 138 113 99 82 81 90 84 88 90 106 115 136 171 164 188 191 175 193 201 180 212 242 248 244 249 255 252
170 239 170 170 170 183 247 97 316 282 281 282 297 341 103 127 144 132 109 119 106 99 95 87 84 85 93 105 137 192 200 174 186 199 209 204 216 221 226 238 240 245 247 241
216 244 262 16 22 69 193 229 258 287 283 297 272 298 136 98 172 162 126 121 102 100 94 92 84 84 83 85 85 86 123 197 216 209 216 215 221 227 233 240 243 239 247 221
226 203 237 65 102 152 257 270 261 268 288 288 312 308 17 37 175 157 127 126 119 105 93 91 94 94 93 88 81 73 64 70 92 157 206 212 217 225 230 238 235 230 247 215
220 141 180 178 187 230 260 277 271 267 269 261 269 266 62 115 139 164 146 138 126 112 102 101 102 98 89 85 83 81 79 77 82 81 76 76 112 315 305 273 244 229 231 220
231 147 202 252 183 254 259 261 287 280 265 278 272 57 128 144 159 157 149 146 131 124 116 107 105 101 102 99 101 101 101 105 99 92 79 61 43 29 7 339 274 242 239 242
172 232 236 274 196 254 18 4 267 269 240 247 276 202 142 140 142 151 154 146 136 131 126 116 111 113 110 101 106 122 133 137 128 120 101 73 22 350 325 313 291 274 274 267
241 250 245 267 260 279 259 211 215 212 252 183 208 153 146 142 150 157 167 158 149 147 129 139 139 131 153 177 160 188 207 217 215 197 212 268 317 317 315 307 301 295 291 284
209 240 262 253 271 278 330 94 151 240 249 169 190 172 164 167 222 124 177 179 172 161 148 220 208 221 224 231 218 244 259 258 273 279 276 267 268 281 293 300 303 295 284 278
201 247 247 239 250 267 98 123 190 227 61 147 182 177 178 201 30 78 148 168 174 282 275 266 252 274 319 297 268 264 291 290 321 296 270 269 272 270 268 273 278 283 283 286
252 241 228 246 263 244 120 156 231 30 57 126 174 178 195 185 105 119 154 176 201 289 328 357 303 340 333 331 292 296 314 334 300 285 277 269 264 265 278 275 270 269 273 275
243 278 335 288 33 79 210 307 357 324 117 121 133 149 166 178 187 125 103 26 354 333 322 303 301 297 280 344 333 321 341 319 311 299 290 279 267 264 264 266 271 273 265 261
191 238 257 258 154 190 213 205 251 189 97 117 119 120 143 138 124 341 332 336 332 347 330 315 296 299 310 310 310 307 310 310 300 293 287 283 277 267 263 263 262 264 270 273
14 162 231 247 235 231 223 224 181 153 149 127 100 77 35 346 336 346 334 331 331 325 308 310 306 305 303 306 305 311 315 310 300 296 293 288 280 276 270 258 265 272 273 277
195 242 233 278 33 262 325 176 182 177 170 156 162 129 34 337 326 322 310 320 312 316 318 305 303 301 308 306 307 310 309 303 300 297 289 290 293 284 276 277 278 249 239 255